FENGYUN 1C DEB, 30314

Orbit data source: Space-Track

FENGYUN 1C DEB, 30314 is space debris in SSO originally from a launch on Mon, 10 May 1999 UTC launched from the Taiyaun Space Center, China (TSC). Fengyun 1C debris stems from the Chinese weather satellite Fengyun-1C, which was intentionally destroyed by a Chinese anti-satellite missile in 2007. This event dramatically increased the amount of space debris, with thousands of trackable fragments posing hazards to satellites and human spaceflight. The Fengyun 1C debris cloud has become a focal point in discussions about space sustainability and the need for international regulations to prevent the creation of new debris.

Loading next visibility...
Identifier
30314, 1999-025AAB
Orbit
SSO
Country
Flag of CNCN / PRC
Related business
Manufacturer
Unknown
Mission
Spacecraft
Bus & Motor
Unknown
Mass
Unknown
Launch date (UTC)
1999-05-10 (27 years ago)
Launch vehicle
Unknown
Launch site
Taiyaun Space Center, China (TSC)
Object type
Payload
Rocket body
Debris
Shape & HBR
Unknown shape, 0.1 m
Radar Cross Section
Small (<0.1 m²)

Expand to show TLE details & history
Last TLE update: 5 days ago

TLE from 5 days ago
0 FENGYUN 1C DEB
1 30314U 99025AAB 25345.47451721  .00002699  00000-0  16680-2 0  9995
2 30314  98.3809 176.4445 0142405   1.4637 358.6919 14.01185850960917
Epoch: 2025-12-11T11:23Z
TLE epoch observation values (Epoch: 2025-12-11T11:23:18.286Z)
Latitude
-0.00008°
Longitude
-74.81165°
Altitude
789.101 km
Speed
7.512 km/s
True Right ascension
11h 45m 46s
True Declination
0° 00' 00"
Sunlit
Object was in daylight at epoch
Visualization orbit readout
Latitude
Unknown
Longitude
Unknown
Altitude
Unknown
Speed
Unknown
Apparent Right ascension
Unknown
Apparent Declination
Unknown
Sunlit
N/A
Visualization observer readout
Local Sidereal Time
03:49:58
Azimuth
Unknown
Elevation
Unknown
Doppler factor
Unknown
Orbital elements
Apogee altitude
990.316 km
Perigee altitude
783.402 km
Semi-major axis
7,264.996 km
Eccentricity
0.01424
Inclination
98.3809°
RAAN
176.4445°
Arg. of periapsis
1.4637°
True anomaly
358.65397°
Mean anomaly
358.6919°
Eccentric anomaly
358.673°
Mean motion
3.50502 °/min
Orbital period
102.71 mins
BSTAR
0.001668
Loading maneuver chart data...
Computing Atmospheric mass density...

Documentation

Showing up to 5 results
|